This is the latest recevied weather packets stored in our database for station/object N3MFL. If no packets are shown the sender has not sent any weather packets the latest 10 day(s).
| Time | Temp. | Humidity | Pressure | Rain* | Wind** | Luminosity | Snow |
|---|---|---|---|---|---|---|---|
| 1777887752 | 3.33° C | 80% | 1012.5 hPa | 0 mm | - | 4 W/m² | - |
| 1777887449 | 3.89° C | 80% | 1012.3 hPa | 0 mm | - | 2 W/m² | - |
| 1777887144 | 3.89° C | 78% | 1012.4 hPa | 0 mm | - | 1 W/m² | - |
| 1777886840 | 3.89° C | 78% | 1012.2 hPa | 0 mm | - | 1 W/m² | - |
| 1777886536 | 4.44° C | 77% | 1012.3 hPa | 0 mm | - | 0 W/m² | - |
| 1777886235 | 5° C | 75% | 1012.3 hPa | 0 mm | - | 0 W/m² | - |
| 1777885932 | 5° C | 74% | 1012.3 hPa | 0 mm | - | 0 W/m² | - |
| 1777885631 | 5.56° C | 70% | 1012.3 hPa | 0 mm | - | 0 W/m² | - |
| 1777885329 | 5.56° C | 68% | 1012.4 hPa | 0 mm | - | 0 W/m² | - |
| 1777885027 | 5.56° C | 68% | 1012.2 hPa | 0 mm | - | 0 W/m² | - |
| 1777884722 | 5.56° C | 68% | 1012.5 hPa | 0 mm | - | 0 W/m² | - |
| 1777884419 | 5.56° C | 67% | 1012.1 hPa | 0 mm | - | 0 W/m² | - |
| 1777884115 | 5.56° C | 66% | 1012.2 hPa | 0 mm | - | 0 W/m² | - |
| 1777883813 | 5.56° C | 68% | 1012.3 hPa | 0 mm | - | 0 W/m² | - |
| 1777883509 | 5.56° C | 67% | 1012.2 hPa | 0 mm | - | 0 W/m² | - |
| 1777883205 | 5.56° C | 69% | 1012.2 hPa | 0 mm | - | 0 W/m² | - |
| 1777882902 | 5° C | 75% | 1012.1 hPa | 0 mm | - | 0 W/m² | - |
| 1777882599 | 5° C | 76% | 1012.1 hPa | 0 mm | - | 0 W/m² | - |
| 1777882295 | 5° C | 75% | 1012.2 hPa | 0 mm | - | 0 W/m² | - |
| 1777881992 | 5° C | 71% | 1012.2 hPa | 0 mm | - | 0 W/m² | - |
| 1777881688 | 5° C | 74% | 1012.2 hPa | 0 mm | - | 0 W/m² | - |
| 1777881385 | 5.56° C | 72% | 1012.1 hPa | 0 mm | - | 0 W/m² | - |
| 1777881082 | 5.56° C | 69% | 1012.1 hPa | 0 mm | - | 0 W/m² | - |
| 1777880780 | 5.56° C | 68% | 1012.1 hPa | 0 mm | - | 0 W/m² | - |
| 1777880478 | 5.56° C | 70% | 1012.1 hPa | 0 mm | - | 0 W/m² | - |
* Rain latest hour (hover to see other rain measurements)
** Current wind speed in m/s (hover to see current wind gust speed)